www.pogodaiklimat.ru

Погода и климат >> Архив погоды >> Германия >> Hamburg


АРХИВ ПОГОДЫ в Hamburg

Время (UTC), дата Ветер
(напр.,м/с)
 
Видим.   Явления Облачность Т
(С)
Тd
(С)
f
(%)
Тe
(С)
Тes
(С)
Комфортность P
(гПа)
Po
(гПа)
Тmin
(С)
Tmax
(С)
R
(мм)
R24
(мм)
S
(см)
22 18.02 Ю 3 25 км 9/0
[Ac trans]
+2.0 -2.6 72 -2 -2 тепло 1024.2 1022.3
23 18.02 ЮВ 3 25 км 10/0
[Ac As]
+1.5 -2.6 74 -3 -3 по сезону 1024.0 1022.1
00 19.02 ЮВ 2 25 км 8/0
[Ac trans]
-0.4 -3.3 81 -4 -4 по сезону 1023.6 1021.7
02 19.02 Ю 2-3
{3}
9000 м н/о +0.2 -2.6 81 -3 -3 тепло 1022.6 1020.7
01 19.02 ЮВ 3 25 км 8/0
[Ac trans]
-0.1 -2.9 81 -5 -5 по сезону 1023.1 1021.2
03 19.02 Ю 3 20 км 10/0
[Ac trans]
-0.1 -2.4 84 -5 -5 по сезону 1021.9 1020.0
04 19.02 ЮВ 2 >70 км 10/0
[Ac trans]
-0.1 -2.2 86 -4 -4 тепло 1021.7 1019.8
05 19.02 Ю 1 20 км 9/0
[Ac trans]
+0.3 -2.4 82 -2 -2 тепло 1021.4 1019.5
06 19.02 Ю 1 20 км 9/9 600 м
[Sc]
0.0 -2.3 84 -2 -2 по сезону 1021.4 1019.5 -0.9 +3.2
08 19.02 Ю 1 12 км 9/9 630 м
[Sc]
+1.3 -1.5 82 -0 -0 тепло 1021.3 1019.4
07 19.02 ЮВ 2 15 км 10/5 630 м
[Cu Sc Ac As]
+0.9 -1.9 82 -3 -3 по сезону 1021.4 1019.5
09 19.02 Ю 3 12 км 9/5 600 м
[Sc Cs]
+2.4 -1.8 74 -2 -1 по сезону 1021.1 1019.2
10 19.02 ЮЗ 3 12 км 9/4 630 м
[Sc Ac trans Cs]
+3.2 -2.0 69 -0 +1 тепло 1020.9 1019.0
11 19.02 ЮЗ 3 14 км 9/6 660 м
[Cu Sc Ci sp]
+3.6 -1.7 68 0 +1 по сезону 1020.6 1018.7
12 19.02 ЮЗ 2 13 км 9/8 2000 м
[Sc Ci sp]
+4.8 -1.3 65 +3 +3 по сезону 1020.2 1018.3
14 19.02 ЮЗ 2 14 км 5/3 960 м
[Cu Sc Ci fib]
+6.0 -1.3 59 +4 +5 тепло 1019.5 1017.6
13 19.02 ЮЗ 2 13 км 8/6 2000 м
[Sc Ci sp]
+5.6 -1.1 62 +4 +5 тепло 1019.8 1017.9
15 19.02 ЮЗ 3 14 км 8/4 1080 м
[Cu Sc Ac trans Ci fib]
+5.0 -1.4 63 +2 +2 по сезону 1019.5 1017.6
16 19.02 З 1 14 км 6/5 1140 м
[Cu Sc Ac trans Ci fib]
+4.8 -1.6 63 +4 +4 тепло 1019.4 1017.5
17 19.02 З 1 14 км 5/3 2000 м
[Sc Ci fib]
+3.0 -1.8 71 +2 +2 тепло 1019.4 1017.5
18 19.02 штиль 0 15 км 9/9 2000 м
[Sc]
+1.9 -1.6 78 +1 +1 по сезону 1019.5 1017.6 0.0 +6.4
20 19.02 штиль 0 12 км 6/0
[Ac trans]
+1.1 -1.6 82 0 0 тепло 1019.5 1017.6
19 19.02 СВ 1 12 км 9/4 1500 м
[Sc Ac trans]
+1.4 -1.3 82 -0 -0 тепло 1019.6 1017.7
21 19.02 В 1 10 км 9/4 1000 м
[Sc Ac trans]
+1.0 -1.7 82 -1 -1 по сезону 1019.6 1017.7
22 19.02 В 1 10 км 4/4 1050 м
[Sc]
+0.4 -1.4 88 -2 -2 тепло 1019.6 1017.7
23 19.02 СВ 1 10 км 4/0
[Ac trans]
-1.2 -2.4 92 -3 -3 тепло 1019.7 1017.8
00 20.02 В 2 10 км 3/3 1500 м
[Sc]
-1.5 -2.6 92 -5 -5 по сезону 1019.7 1017.8
02 20.02 В 2-2
{3}
6000 м дымка ясно -1.9 -2.9 93 -6 -6 тепло 1019.9 1018.0
01 20.02 СВ 2-2
{3}
6000 м дымка ясно -1.6 -2.8 92 -6 -6 по сезону 1020.0 1018.1
03 20.02 СВ 1 6000 м дымка ясно -2.5 -3.1 96 -5 -5 по сезону 1020.0 1018.1
04 20.02 СВ 1-1
{2}
5000 м дымка ясно -2.1 -2.8 95 -4 -4 тепло 1020.1 1018.2
05 20.02 СВ 1-2
{2}
5000 м дымка ясно -2.7 -3.4 95 -5 -5 тепло 1020.1 1018.2
06 20.02 С 1 5000 м дымка 1/1 1500 м
[Sc]
-2.7 -3.9 91 -5 -5 по сезону 1020.5 1018.6 -3.0 +2.4
08 20.02 В 1 6000 м дымка 1/1 2000 м
[Sc]
-1.5 -3.0 89 -4 -2 тепло 1021.1 1019.2
07 20.02 штиль 0 5000 м местами туман поземный 1/1 2000 м
[Sc]
-2.5 -3.4 94 -4 -3 по сезону 1020.7 1018.8
09 20.02 В 2 7000 м дымка ясно +0.5 -1.9 84 -3 -1 по сезону 1021.1 1019.2
10 20.02 В 3-5
{5}
12 км ясно +2.8 -1.7 72 -1 +2 тепло 1021.2 1019.3
11 20.02 В 5 16 км 1/1 750 м
[Cu hum]
+3.6 -3.5 60 -1 +1 по сезону 1021.3 1019.4
12 20.02 В 4 15 км 1/1 1050 м
[Cu hum]
+4.3 -3.6 56 +1 +3 по сезону 1021.3 1019.4
14 20.02 В 5 15 км 3/3 1050 м
[Cu hum]
+3.9 -4.1 56 -1 0 тепло 1021.5 1019.6
13 20.02 В 4 15 км 6/6 960 м
[Sc]
+3.6 -3.4 60 -1 0 тепло 1021.5 1019.6
15 20.02 В 5 16 км 1/1 1080 м
[Cu hum]
+3.8 -3.8 58 -1 -0 по сезону 1021.7 1019.8
16 20.02 СВ 4 15 км 1/1 900 м
[Cu hum]
+2.7 -2.1 71 -2 -2 тепло 1022.0 1020.1
17 20.02 СВ 3-5
{7}
12 км ясно +1.7 -2.3 75 -2 -2 тепло 1022.5 1020.6
18 20.02 СВ 3 12 км ясно +1.0 -2.6 77 -3 -3 по сезону 1023.1 1021.2 -3.6 +4.7
20 20.02 СВ 2-3
{3}
18 км ясно -0.5 -2.9 84 -4 -4 тепло 1024.3 1022.4
19 20.02 СВ 2-3
{4}
12 км ясно +0.3 -2.7 80 -3 -3 тепло 1023.9 1022.0
21 20.02 СВ 3 18 км ясно -0.8 -3.4 83 -6 -6 по сезону 1024.8 1022.9
22 20.02 СВ 2-4
{4}
18 км ясно -1.1 -3.8 82 -5 -5 тепло 1025.3 1023.4
23 20.02 СВ 2-3
{3}
20 км ясно -1.9 -4.1 85 -6 -6 по сезону 1025.6 1023.7
00 21.02 СВ 2 20 км ясно -2.5 -4.4 87 -7 -7 прохладно 1026.1 1024.2
02 21.02 С 1-1
{3}
20 км ясно -3.7 -4.5 94 -6 -6 тепло 1026.4 1024.5
01 21.02 СВ 2-3
{3}
20 км ясно -3.2 -4.7 89 -7 -7 по сезону 1026.2 1024.3
03 21.02 СЗ 2 20 км 5/0
[Ci fib]
-3.0 -4.3 91 -7 -7 прохладно 1026.7 1024.8
04 21.02 штиль 0 18 км 6/0
[Ci fib]
-4.6 -5.2 96 -6 -6 тепло 1026.7 1024.7
05 21.02 штиль 0 20 км 5/0
[Ci fib]
-4.6 -5.5 93 -6 -6 по сезону 1026.7 1024.7
06 21.02 СЗ 2 15 км 4/0
[Ci fib]
-4.4 -4.9 96 -9 -9 холодно 1027.2 1025.2 -5.4 +1.0
08 21.02 СЗ 1 9000 м 5/3 1260 м
[Sc Ac trans Ci fib]
-2.9 -4.0 92 -5 -4 тепло 1027.4 1025.5
07 21.02 С 1 9000 м 4/0
[Ac trans Ci fib]
-4.1 -4.7 96 -7 -6 по сезону 1026.8 1024.9
09 21.02 СЗ 1 15 км 3/1 1000 м
[Sc Ac trans Ci fib]
-0.4 -3.7 78 -2 0 по сезону 1027.7 1025.8
10 21.02 В 3 15 км 3/1 1260 м
[Sc Ac trans Ci fib]
+2.1 -3.5 66 -2 +1 тепло 1027.7 1025.8
11 21.02 В 2 25 км 8/8 840 м
[Cu Sc Ci fib]
+2.9 -4.7 57 0 +1 по сезону 1027.8 1025.9
12 21.02 СВ 3 14 км н/о +3.2 -4.5 57 -0 -0 по сезону 1027.7 1025.8
14 21.02 СВ 4 25 км 9/9 900 м
[Cu Sc]
+2.6 -3.5 64 -2 -2 тепло 1027.2 1025.3
13 21.02 СВ 4 25 км 9/9 900 м
[Cu Sc]
+2.7 -4.0 61 -2 -1 по сезону 1027.5 1025.6
15 21.02 В 3 30 км 9/9 900 м
[Cu Sc]
+2.6 -3.8 63 -1 -1 по сезону 1027.0 1025.1
16 21.02 СВ 3 25 км 8/8 1500 м
[Sc Ci fib]
+2.4 -4.1 62 -1 -1 тепло 1026.7 1024.8
17 21.02 СВ 2 22 км 4/4 1440 м
[Sc]
+1.3 -4.3 66 -2 -2 по сезону 1027.0 1025.1
18 21.02 СВ 2 20 км 1/1 1500 м
[Sc]
+0.1 -3.7 76 -3 -3 по сезону 1027.5 1025.6 -5.4 +3.5
20 21.02 СВ 1 18 км 1/0
[Ci fib]
-1.6 -2.8 92 -4 -4 тепло 1028.0 1026.1
19 21.02 СВ 2 18 км 1/0
[Ci fib]
-0.2 -2.4 85 -4 -4 по сезону 1027.6 1025.7
21 21.02 СВ 1 18 км 1/0
[Ci fib]
-2.4 -2.8 97 -5 -5 прохладно 1028.2 1026.3
22 21.02 С 1-1
{1}
18 км ясно -3.1 -3.4 98 -6 -6 тепло 1028.2 1026.3
23 21.02 З 1 15 км туман на расстоянии 1/0
[Ac trans]
-3.1 -3.4 98 -6 -6 по сезону 1028.2 1026.3
00 22.02 СЗ 1 15 км 9/9 2000 м
[Sc]
-3.9 -4.4 96 -6 -6 прохладно 1028.3 1026.3
02 22.02 штиль 0 15 км 9/3 1500 м
[Sc Ac As]
-3.0 -3.5 96 -4 -4 тепло 1027.7 1025.8
01 22.02 штиль 0 15 км 8/8 1500 м
[Sc]
-3.5 -4.3 94 -5 -5 по сезону 1028.0 1026.1
03 22.02 СЗ 1 15 км 9/5 1500 м
[Sc Ac As]
-2.6 -2.8 99 -5 -5 по сезону 1027.6 1025.7
04 22.02 СЗ 2 18 км 10/9 1500 м
[Sc]
-2.2 -2.7 96 -6 -6 тепло 1027.6 1025.7
05 22.02 С 2 15 км слабый снег 10/10 750 м
[Sc]
-1.5 -1.9 97 -6 -6 по сезону 1027.6 1025.7
06 22.02 штиль 0 5000 м слабый снег 10/10 600 м
[Sc]
-1.2 -1.7 96 -3 -3 по сезону 1027.5 1025.6 -4.8 +0.1 0.0 <0.5
08 22.02 СВ 1 6000 м слабый снег 10/10 360 м
[Sc]
-0.4 -1.1 95 -3 -3 тепло 1027.7 1025.8
07 22.02 СВ 2 3500 м слабый снег 10/10 360 м
[Sc]
-0.5 -1.5 93 -4 -4 по сезону 1027.6 1025.7
09 22.02 С 1 7000 м слабый снег 9/9 300 м
[Sc]
0.0 -1.2 92 -2 -2 по сезону 1027.8 1025.9 0.1
10 22.02 С 1 8000 м слабый снег 9/9 360 м
[Cu Sc]
+0.6 -1.2 88 -1 -1 тепло 1027.7 1025.8
11 22.02 СВ 1 11 км 9/9 360 м
[Cu Sc]
+1.7 -0.5 85 0 +1 по сезону 1027.6 1025.7
12 22.02 С 1 15 км {снег} 9/9 300 м
[Cu Sc]
+1.9 -1.9 76 0 +1 по сезону 1027.6 1025.7 0.0 0
14 22.02 СВ 3 20 км 9/9 500 м
[Cu Sc]
+2.2 -1.5 76 -2 -2 тепло 1026.9 1025.0
13 22.02 СВ 2 20 км 9/9 480 м
[Cu Sc]
+2.0 -2.0 75 -1 -1 по сезону 1027.2 1025.3
15 22.02 С 2 18 км 8/8 480 м
[Cu Sc]
+2.3 -1.5 76 -1 -1 по сезону 1026.6 1024.7
16 22.02 С 2 14 км 5/5 500 м
[Cu Sc]
+1.0 -1.9 81 -2 -2 тепло 1026.5 1024.6
17 22.02 С 2 12 км 8/8 1080 м
[Sc]
+1.1 -2.0 80 -2 -2 по сезону 1026.6 1024.7
18 22.02 СВ 3 12 км 6/6 300 м
[Cu Sc]
+0.7 -1.7 84 -4 -4 прохладно 1026.8 1024.9 -1.2 +2.3 0.1
20 22.02
{5}
30 км 8/8 1170 м
[Sc]
-0.3 -2.9 83 1026.7 1024.8
19 22.02 СВ 3 25 км 3/3 1080 м
[Sc]
-0.1 -2.5 84 -5 -5 по сезону 1027.0 1025.1
21 22.02 С 3 30 км 8/8 1230 м
[Sc]
-0.3 -2.7 84 -5 -5 прохладно 1026.7 1024.8
22 22.02 СВ 2 35 км 9/9 1320 м
[Sc]
-0.2 -2.6 84 -4 -4 тепло 1026.8 1024.9
23 22.02 С 3 30 км 9/9 1440 м
[Sc]
-0.4 -2.4 86 -5 -5 по сезону 1026.8 1024.9
00 23.02 СВ 3 30 км 9/9 1000 м
[Sc]
0.0 -2.4 84 -5 -5 по сезону 1026.9 1025.0
02 23.02 СВ 3 25 км 4/4 1440 м
[Sc]
-1.4 -3.2 88 -6 -6 тепло 1026.7 1024.8
01 23.02 СВ 3 30 км 9/9 1440 м
[Sc]
-0.4 -2.8 84 -5 -5 по сезону 1026.8 1024.9
03 23.02 В 2 15 км 5/5 1410 м
[Sc]
-1.7 -3.1 90 -6 -6 прохладно 1026.6 1024.7
04 23.02 В 4 15 км 9/9 720 м
[Cu Sc]
-0.8 -3.1 84 -6 -6 тепло 1026.7 1024.8
05 23.02 В 5 25 км 9/9 1350 м
[Sc]
-1.8 -4.7 81 -8 -8 по сезону 1026.9 1025.0
06 23.02 В 3 30 км 1/0
[Ac trans Ci fib]
-2.7 -5.4 82 -8 -8 прохладно 1027.4 1025.5 -3.2 +0.7
08 23.02 В 4 35 км 5/0
[Ci fib]
-2.0 -6.0 74 -8 -7 по сезону 1027.9 1026.0
07 23.02 СВ 3 35 км 6/0
[Ac trans Ci fib]
-3.0 -5.7 82 -8 -8 по сезону 1027.8 1025.9
09 23.02 В 5 40 км 5/1 600 м
[Cu hum Ci fib]
-1.1 -6.6 66 -7 -6 холодно 1028.2 1026.3
10 23.02 В 6 35 км 6/1 960 м
[Cu hum Ci fib]
-0.3 -7.4 59 -6 -5 по сезону 1028.1 1026.2
11 23.02 В 7 30 км 8/1 960 м
[Cu hum Ci fib]
0.0 -7.5 57 -7 -6 по сезону 1028.1 1026.2
12 23.02 В 5 30 км 9/1 960 м
[Cu hum Ci sp]
+0.5 -6.8 58 -5 -3 холодно 1028.0 1026.1
14 23.02 В 6 30 км 9/0
[Ci fib]
+1.0 -7.7 52 -5 -4 тепло 1027.4 1025.5
13 23.02 В 5 30 км 9/0
[Ci fib]
+0.9 -6.8 56 -4 -3 по сезону 1027.8 1025.9
15 23.02 В 4 35 км 8/0
[Ci fib]
+0.5 -7.9 53 -4 -4 прохладно 1027.4 1025.5
16 23.02 СВ 5 30 км 8/0
[Ci fib]
+0.1 -7.2 58 -5 -5 тепло 1027.5 1025.6
17 23.02 В 4 30 км 5/0
[Ci sp]
-1.3 -8.8 57 -6 -6 по сезону 1027.4 1025.5
18 23.02 В 3 40 км 4/0
[Ci sp]
-2.0 -9.6 56 -6 -6 прохладно 1027.8 1025.9 -3.6 +1.5
20 23.02 В 3 35 км 3/0
[Ci fib]
-2.7 -8.1 66 -7 -7 тепло 1028.6 1026.7
19 23.02 В 2 40 км 3/0
[Ci fib]
-2.1 -9.1 59 -6 -6 по сезону 1028.1 1026.2
21 23.02 В 2 35 км 1/0
[Ci fib]
-2.8 -8.1 67 -6 -6 прохладно 1029.0 1027.1
22 23.02 В 2 35 км 1/0
[Ci fib]
-2.8 -8.0 67 -6 -6 тепло 1029.3 1027.4
23 23.02 В 3 35 км 1/0
[Ci fib]
-3.6 -8.1 71 -9 -9 по сезону 1029.6 1027.6
00 24.02 В 2 35 км 1/0
[Ci fib]
-3.6 -7.8 73 -8 -8 прохладно 1029.9 1027.9
02 24.02 СВ 1 35 км 9/9 660 м
[Sc]
-2.4 -6.5 73 -4 -4 тепло 1029.9 1028.0
01 24.02 В 2 35 км 8/8 700 м
[Sc]
-2.9 -6.7 75 -7 -7 по сезону 1029.9 1028.0
03 24.02 СВ 1 35 км 9/9 630 м
[Sc]
-2.1 -6.3 73 -4 -4 по сезону 1029.9 1028.0
04 24.02 СВ 2 35 км 9/9 700 м
[Sc]
-1.7 -5.5 75 -5 -5 тепло 1030.3 1028.4
05 24.02 СВ 2 30 км 9/9 700 м
[Sc]
-1.3 -4.9 76 -5 -5 по сезону 1030.7 1028.8
06 24.02 В 4 35 км 10/10
[As op Cs]
-0.5 -4.1 77 -6 -6 по сезону 1030.9 1029.0 -3.8 -0.5
08 24.02 В 5 40 км 9/6 1080 м
[Sc Ci sp]
+0.6 -4.7 68 -5 -5 тепло 1031.6 1029.7
07 24.02 В 5 40 км 9/9 800 м
[Sc]
-0.1 -3.7 77 -6 -6 по сезону 1031.1 1029.2
09 24.02 В 8 50 км 9/9 600 м
[Cu Sc]
+0.7 -6.0 61 -6 -6 прохладно 1031.9 1030.0
10 24.02 В 8 50 км 6/5 800 м
[Cu Sc Ci sp]
+0.4 -5.9 63 -7 -6 по сезону 1032.2 1030.3
11 24.02 В 9 50 км 5/3 1320 м
[Cu hum Ci sp]
+1.2 -9.4 45 -5 -5 по сезону 1032.4 1030.5
12 24.02 В 8 50 км 5/3 1380 м
[Cu hum Ci sp]
+1.6 -9.2 44 -5 -4 холодно 1032.4 1030.5
14 24.02 В 8 50 км 4/4 1050 м
[Cu Sc]
+0.4 -9.7 47 -6 -6 по сезону 1032.5 1030.6
13 24.02 В 7 50 км 5/4 1350 м
[Sc Ci fib]
+1.7 -8.8 46 -4 -4 по сезону 1032.4 1030.5
15 24.02 В 7 50 км 5/5 1200 м
[Sc]
+1.0 -8.8 48 -5 -5 прохладно 1032.4 1030.5
16 24.02 В 8 50 км 3/3 1200 м
[Sc]
-0.4 -8.5 54 -7 -7 по сезону 1032.6 1030.7
17 24.02 В 6 50 км 3/3 1020 м
[Sc]
-0.3 -9.4 50 -6 -6 по сезону 1032.7 1030.8
18 24.02 В 6 50 км 1/1 1000 м
[Sc]
-1.1 -8.6 57 -7 -7 холодно 1033.4 1031.5 -1.2 +2.5
20 24.02 В 5-8
{8}
50 км ясно -2.3 -7.9 65 -9 -9 по сезону 1034.1 1032.1
19 24.02 В 5-8
{10}
50 км ясно -1.9 -8.0 63 -8 -8 по сезону 1033.5 1031.6
21 24.02 В 4 50 км 3/0
[Ci fib]
-2.7 -7.6 69 -8 -8 холодно 1034.3 1032.3
22 24.02 В 4 50 км 3/0
[Ci fib]
-3.2 -7.5 72 -9 -9 по сезону 1034.4 1032.4
23 24.02 В 3 50 км 1/0
[Ci fib]
-4.1 -7.8 75 -9 -9 по сезону 1034.7 1032.7
00 25.02 В 2 50 км ясно -4.5 -8.1 76 -9 -9 холодно 1034.8 1032.8
02 25.02 СВ 1 50 км 4/0
[Ci fib]
-5.4 -7.5 85 -8 -8 тепло 1034.8 1032.8
01 25.02 СВ 2 50 км 4/0
[Ci fib]
-4.7 -7.5 81 -9 -9 по сезону 1035.0 1033.0
03 25.02 СВ 2 45 км 6/0
[Ci fib]
-5.9 -7.6 88 -10 -10 холодно 1034.7 1032.7
04 25.02 С 1 40 км 6/0
[Ac trans Ci fib]
-6.5 -7.6 92 -9 -9 по сезону 1034.8 1032.8
05 25.02 В 1 35 км 4/4 1350 м
[Sc]
-7.0 -7.8 94 -9 -9 по сезону 1034.8 1032.8
06 25.02 СЗ 2 35 км 9/9 1000 м
[Sc]
-6.7 -7.7 93 -11 -11 холодно 1034.9 1032.9 -7.5 -1.1
08 25.02 С 2 20 км слабый снег 10/3 720 м
[Sc As trans]
-4.1 -6.9 81 -8 -8 по сезону 1035.2 1033.2
07 25.02 С 1 40 км 9/9 1200 м
[Sc]
-5.3 -6.7 90 -8 -8 по сезону 1034.9 1032.9
09 25.02 СЗ 2 7000 м слабый снег 10/4 300 м
[Frnb As op]
-4.3 -7.0 81 -8 -8 холодно 1035.2 1033.2 0.0
10 25.02 СЗ 3 3800 м слабый снег 10/1 300 м
[Frnb As op]
-3.5 -5.1 89 -9 -8 по сезону 1034.8 1032.8
11 25.02 СЗ 3 3000 м слабый снег 10/9 240 м
[Frnb]
-3.0 -4.6 89 -8 -8 прохладно 1034.3 1032.3
12 25.02 СВ 2 4200 м слабый снег 10/4 360 м
[Frnb As op]
-2.6 -4.7 85 -7 -6 холодно 1033.8 1031.8 0.4 1
14 25.02 СВ 5 6000 м слабый снег 10/5 360 м
[Sc As trans]
-2.9 -5.5 82 -10 -9 по сезону 1033.2 1031.2
13 25.02 СВ 4 4300 м слабый снег 10/8 270 м
[Frnb As trans]
-2.9 -5.3 83 -9 -9 прохладно 1033.5 1031.5
15 25.02 СВ 4 4700 м слабый снег 10/6 210 м
[Sc As trans]
-2.9 -4.9 86 -9 -9 очень
холодно
1033.0 1031.0 0.1
16 25.02 С 4 30 км в посл. час снег 9/9 500 м
[Cu Sc]
-3.0 -6.1 79 -9 -9 по сезону 1032.9 1030.9
17 25.02 СВ 4 5000 м слабый снег 9/9 210 м
[Sc]
-3.6 -6.0 83 -10 -10 прохладно 1033.1 1031.1
18 25.02 СВ 4 2500 м снег 10/10 100 м
[Frnb]
-3.8 -5.4 89 -10 -10 очень
холодно
1033.4 1031.4 -6.6 -2.5 0.7 2
20 25.02 СВ 3 5000 м слабый снег 9/9 120 м
[Cu Sc]
-4.0 -6.3 84 -9 -9 по сезону 1033.6 1031.6
19 25.02 СВ 3 6000 м слабый снег 9/9 270 м
[Sc]
-4.0 -5.6 89 -9 -9 по сезону 1033.5 1031.5
21 25.02 СВ 4 2000 м слабый снег 10/6 300 м
[Sc Ac As]
-4.2 -7.9 75 -10 -10 очень
холодно
1033.7 1031.7 0.3
22 25.02 СВ 4 30 км в посл. час снег 8/4 300 м
[Sc Ac trans]
-4.8 -6.3 89 -11 -11 холодно 1033.7 1031.7

 

Местоположение метеостанции Hamburg (Германия): широта 53.63 долгота 10.00 высота над уровнем моря 16 м.

В архиве по умолчанию представлена погода в Hamburg за последнюю неделю. Архивные данные за месяц целиком и за предыдущие месяцы, начиная с января 2011 года, Вы можете получить, выбрав интересующий диапазон дат из раскрывающегося списка и нажав кнопку "Ввод!".

Внимание! Время в таблицах - всемирное. Для получения местного времени необходимо прибавить поправку, которая в Hamburg равна 1 ч.

Смотрите также архив погоды в соседних городах и на ближайших метеорологических станциях:

Погода в Quickborn (Германия) (14 км)
Погода в Itzehoe (Германия) (48 км)
Погода в Luebeck-Blankensee (Германия) (51 км)
Погода в Boizenburg (Германия) (52 км)
Погода в Bremervoerde (Германия) (57 км)
Погода в Doernick (Германия) (64 км)
Погода в Soltau (Германия) (71 км)
Погода в Pelzerhaken (Германия) (76 км)
Погода в Fassberg (Германия) (80 км)
Погода в Elpersbuettel (Германия) (81 км)

Пояснения к столбцам:

Ветер - указаны скорость ветра в м/с - средняя за 10 мин, порывы в срок и между сроками (в фигурных скобках) и направление, откуда дует ветер: С - северный, СВ - северо-восточный, В - восточный, ЮВ - юго-восточный, Ю - южный, ЮЗ - юго-западный, З - западный, СЗ - северо-западный.
Видимость - горизонтальная дальность видимости в метрах или километрах. При видимости от 1 до 10 км при отсутствии осадков обычно наблюдается дымка, при ухудшении видимости до 1 км и менее - туман. В сухую погоду видимость может ухудшаться дымом, пылью или мглою.
Явления - указаны атмосферные явления, наблюдавшиеся в срок или в последний час перед сроком; фигурными скобками обозначены явления, наблюдавшиеся между сроками (за 1-3 часа до срока); квадратными скобками обозначены град или гололедные отложения с указанием их диаметра в мм.
Облачность - указаны через наклонную черту общая и нижняя облачность в баллах и высота нижней границы облаков в метрах; квадратными скобками обозначены формы облаков: Ci - перистые, Cs - перисто-слоистые, Cc - перисто-кучевые, Ac - высококучевые, As - высокослоистые, Sc - слоисто-кучевые, Ns - слоисто-дождевые, Cu - кучевые, Cb - кучево-дождевые. Подробнее классификацию облаков см. в Атласе облаков (PDF).
T - Температура воздуха - температура, измеренная на высоте 2 м над землей.
Td - Температура точки росы - температура, при понижении до которой содержащийся в воздухе водяной пар достигнет насыщения.
f - Относительная влажность воздуха - влажноcть воздуха, измеренная на высоте 2 м над землей.
Te - Эффективная температура - температура, которую ощущает одетый по сезону человек в тени. Характеристика душности погоды. При расчете учитывается влияние влажности воздуха и скорости ветра на теплоощущения человека.
Tes - Эффективная температура на солнце - температура, которую ощущает человек, с поправкой на солнечный нагрев. Характеристика знойности погоды. Зависит от высоты солнца над горизонтом, облачности и скорости ветра. Ночью, в пасмурную погоду, а также при ветре 12 м/с и более поправка равна нулю.
P - Атмосферное давление - приведенное к уровню моря атмосферное давление.
Po - Атмосферное давление - измеренное на уровне метеостанции атмосферное давление.
Tmin - Минимальная температура - минимум температуры воздуха на высоте 2 м над землей.
Tmax - Максимальная температура - максимум температуры воздуха на высоте 2 м над землей.
R - Количество осадков - Количество выпавших осадков за период времени, мм. При наведении курсора мыши на число - период времени, за который выпало указанное количество осадков.
R24 - Количество осадков - Количество выпавших осадков за 24 часа, мм.
S - Снежный покров - Высота снежного покрова, см. При наведении курсора мыши на число - состояние снежного покрова и степень покрытия местности в баллах.